Location: Martley
(52.2333°N, 2.3667°W)
Time: 21:26:44
(UTC+00:00)

Cosmos 1452 Rocket - Pass Details

Date: 11 December 2019
Orbit: 767 x 775 km, 74.1° (Epoch: 18 January)

Event Time Altitude Azimuth Distance (km) Brightness Sun altitude
Rises 05:51:33 0° 207° (SSW) 3,238 6.6 -19.6°
Reaches altitude 10° 05:53:55 10° 209° (SSW) 2,316 5.8 -19.2°
Maximum altitude 05:59:12 79° 296° (WNW) 795 3.4 -18.5°
Drops below altitude 10° 06:04:31 10° 24° (NNE) 2,335 6.1 -17.7°
Sets 06:06:55 0° 25° (NNE) 3,267 6.9 -17.3°
